Time,TemperatureF,DewpointF,PressureIn,WindDirection,WindDirectionDegrees,WindSpeedMPH,WindSpeedGustMPH,Humidity,HourlyPrecipIn,Conditions,Clouds,dailyrainin,SoftwareType,DateUTC
2013-04-19 00:01:00,49.0,47.3,30.19,SSE,148,13.0,19.0,94,0.00,,,0.00,HR-IXPWINDi_r2_v1.2.,2013-04-19 04:01:00,
2013-04-19 00:06:00,49.1,47.4,30.18,SE,142,15.0,18.0,94,0.00,,,0.00,HR-IXPWINDi_r2_v1.2.,2013-04-19 04:06:00,
2013-04-19 00:11:00,49.1,47.7,30.18,SSE,158,11.0,17.0,95,0.00,,,0.00,HR-IXPWINDi_r2_v1.2.,2013-04-19 04:11:00,
2013-04-19 00:16:00,49.1,47.7,30.18,SE,134,16.0,16.0,95,0.00,,,0.00,HR-IXPWINDi_r2_v1.2.,2013-04-19 04:16:00,
2013-04-19 00:21:00,49.1,47.7,30.18,SSE,153,13.0,16.0,95,0.00,,,0.00,HR-IXPWINDi_r2_v1.2.,2013-04-19 04:21:00,
2013-04-19 00:27:00,49.1,47.7,30.18,SE,145,8.0,16.0,95,0.00,,,0.00,HR-IXPWINDi_r2_v1.2.,2013-04-19 04:27:00,
2013-04-19 00:32:00,49.2,47.8,30.18,SE,139,11.0,16.0,95,0.00,,,0.00,HR-IXPWINDi_r2_v1.2.,2013-04-19 04:32:00,
2013-04-19 00:37:00,49.4,48.0,30.18,SSE,155,15.0,18.0,95,0.00,,,0.00,HR-IXPWINDi_r2_v1.2.,2013-04-19 04:37:00,
2013-04-19 00:42:00,49.4,48.0,30.17,SE,139,16.0,18.0,95,0.00,,,0.00,HR-IXPWINDi_r2_v1.2.,2013-04-19 04:42:00,
2013-04-19 00:48:00,49.4,48.0,30.17,South,172,11.0,16.0,95,0.00,,,0.00,HR-IXPWINDi_r2_v1.2.,2013-04-19 04:48:00,
2013-04-19 00:53:00,49.4,48.0,30.17,SSE,158,15.0,16.0,95,0.00,,,0.00,HR-IXPWINDi_r2_v1.2.,2013-04-19 04:53:00,
2013-04-19 00:58:00,49.3,47.9,30.17,SSE,152,12.0,16.0,95,0.00,,,0.00,HR-IXPWINDi_r2_v1.2.,2013-04-19 04:58:00,
2013-04-19 01:03:00,49.2,47.8,30.17,SSE,166,15.0,16.0,95,0.00,,,0.00,HR-IXPWINDi_r2_v1.2.,2013-04-19 05:03:00,
2013-04-19 01:09:00,49.2,47.8,30.16,SSE,166,13.0,16.0,95,0.00,,,0.00,HR-IXPWINDi_r2_v1.2.,2013-04-19 05:09:00,
2013-04-19 01:14:00,49.2,48.0,30.16,South,180,12.0,16.0,96,0.00,,,0.00,HR-IXPWINDi_r2_v1.2.,2013-04-19 05:14:00,
2013-04-19 01:19:00,49.2,48.0,30.16,SSE,165,10.0,16.0,96,0.00,,,0.00,HR-IXPWINDi_r2_v1.2.,2013-04-19 05:19:00,
2013-04-19 01:24:00,49.2,48.0,30.15,South,173,11.0,16.0,96,0.00,,,0.00,HR-IXPWINDi_r2_v1.2.,2013-04-19 05:24:00,
2013-04-19 01:29:00,49.2,48.0,30.15,SSE,165,13.0,18.0,96,0.00,,,0.00,HR-IXPWINDi_r2_v1.2.,2013-04-19 05:29:00,
2013-04-19 01:35:00,49.1,47.9,30.15,SSE,160,19.0,19.0,96,0.00,,,0.00,HR-IXPWINDi_r2_v1.2.,2013-04-19 05:35:00,
2013-04-19 01:40:00,49.2,48.0,30.14,SSE,155,15.0,20.0,96,0.00,,,0.00,HR-IXPWINDi_r2_v1.2.,2013-04-19 05:40:00,
2013-04-19 01:45:00,49.2,48.0,30.14,SSE,158,18.0,22.0,96,0.00,,,0.00,HR-IXPWINDi_r2_v1.2.,2013-04-19 05:45:00,
2013-04-19 01:51:00,49.2,48.0,30.14,SSE,162,14.0,22.0,96,0.00,,,0.00,HR-IXPWINDi_r2_v1.2.,2013-04-19 05:51:00,
2013-04-19 01:56:00,49.2,48.0,30.13,South,184,17.0,21.0,96,0.00,,,0.00,HR-IXPWINDi_r2_v1.2.,2013-04-19 05:56:00,
2013-04-19 02:01:00,49.2,48.0,30.13,SSE,153,17.0,19.0,96,0.00,,,0.00,HR-IXPWINDi_r2_v1.2.,2013-04-19 06:01:00,
2013-04-19 02:06:00,49.1,47.9,30.13,South,171,14.0,20.0,96,0.00,,,0.00,HR-IXPWINDi_r2_v1.2.,2013-04-19 06:06:00,
2013-04-19 02:11:00,49.0,48.1,30.13,SSE,153,14.0,20.0,97,0.00,,,0.00,HR-IXPWINDi_r2_v1.2.,2013-04-19 06:11:00,
2013-04-19 02:17:00,48.9,48.0,30.13,South,179,13.0,19.0,97,0.00,,,0.00,HR-IXPWINDi_r2_v1.2.,2013-04-19 06:17:00,
2013-04-19 02:22:00,48.8,47.9,30.13,South,169,18.0,19.0,97,0.00,,,0.00,HR-IXPWINDi_r2_v1.2.,2013-04-19 06:22:00,
2013-04-19 02:27:00,48.9,48.0,30.13,South,173,14.0,19.0,97,0.00,,,0.00,HR-IXPWINDi_r2_v1.2.,2013-04-19 06:27:00,
2013-04-19 02:32:00,49.0,48.1,30.12,SSE,159,16.0,19.0,97,0.00,,,0.00,HR-IXPWINDi_r2_v1.2.,2013-04-19 06:32:00,
2013-04-19 02:37:00,49.2,48.3,30.12,South,170,15.0,19.0,97,0.00,,,0.00,HR-IXPWINDi_r2_v1.2.,2013-04-19 06:37:00,
2013-04-19 02:42:00,49.0,48.1,30.12,SSE,162,14.0,18.0,97,0.00,,,0.00,HR-IXPWINDi_r2_v1.2.,2013-04-19 06:42:00,
2013-04-19 02:48:00,48.9,48.0,30.12,SSE,165,14.0,18.0,97,0.00,,,0.00,HR-IXPWINDi_r2_v1.2.,2013-04-19 06:48:00,
2013-04-19 02:53:00,48.8,47.9,30.12,SSE,163,14.0,17.0,97,0.00,,,0.00,HR-IXPWINDi_r2_v1.2.,2013-04-19 06:53:00,
2013-04-19 02:58:00,48.8,48.2,30.11,SSE,162,12.0,17.0,98,0.00,,,0.00,HR-IXPWINDi_r2_v1.2.,2013-04-19 06:58:00,
2013-04-19 03:03:00,48.8,48.2,30.11,SSE,160,12.0,17.0,98,0.00,,,0.00,HR-IXPWINDi_r2_v1.2.,2013-04-19 07:03:00,
2013-04-19 03:08:00,49.0,48.4,30.11,SSE,164,16.0,19.0,98,0.00,,,0.00,HR-IXPWINDi_r2_v1.2.,2013-04-19 07:08:00,
2013-04-19 03:13:00,49.3,48.7,30.10,SSE,168,14.0,19.0,98,0.00,,,0.00,HR-IXPWINDi_r2_v1.2.,2013-04-19 07:13:00,
2013-04-19 03:19:00,49.3,48.7,30.10,SSE,163,15.0,20.0,98,0.00,,,0.00,HR-IXPWINDi_r2_v1.2.,2013-04-19 07:19:00,
2013-04-19 03:24:00,49.3,48.7,30.10,SSE,161,13.0,20.0,98,0.00,,,0.00,HR-IXPWINDi_r2_v1.2.,2013-04-19 07:24:00,
2013-04-19 03:29:00,49.3,48.7,30.10,SSE,160,16.0,18.0,98,0.00,,,0.00,HR-IXPWINDi_r2_v1.2.,2013-04-19 07:29:00,
2013-04-19 03:34:00,49.6,49.0,30.10,SSE,158,14.0,18.0,98,0.00,,,0.00,HR-IXPWINDi_r2_v1.2.,2013-04-19 07:34:00,
2013-04-19 03:40:00,49.9,49.3,30.09,SSE,156,13.0,19.0,98,0.00,,,0.00,HR-IXPWINDi_r2_v1.2.,2013-04-19 07:40:00,
2013-04-19 03:45:00,49.9,49.3,30.10,SSE,162,12.0,19.0,98,0.00,,,0.00,HR-IXPWINDi_r2_v1.2.,2013-04-19 07:45:00,
2013-04-19 03:50:00,49.6,49.0,30.09,SSE,163,12.0,19.0,98,0.00,,,0.00,HR-IXPWINDi_r2_v1.2.,2013-04-19 07:50:00,
2013-04-19 03:55:00,49.5,48.9,30.09,SSE,148,13.0,18.0,98,0.00,,,0.00,HR-IXPWINDi_r2_v1.2.,2013-04-19 07:55:00,
2013-04-19 04:00:00,49.5,48.9,30.09,SSE,167,9.0,17.0,98,0.00,,,0.00,HR-IXPWINDi_r2_v1.2.,2013-04-19 08:00:00,
2013-04-19 04:06:00,49.5,48.9,30.09,South,172,11.0,17.0,98,0.00,,,0.00,HR-IXPWINDi_r2_v1.2.,2013-04-19 08:06:00,
2013-04-19 04:11:00,49.6,49.0,30.09,South,177,12.0,18.0,98,0.00,,,0.00,HR-IXPWINDi_r2_v1.2.,2013-04-19 08:11:00,
2013-04-19 04:16:00,49.5,48.9,30.09,SSE,158,11.0,18.0,98,0.00,,,0.00,HR-IXPWINDi_r2_v1.2.,2013-04-19 08:16:00,
2013-04-19 04:21:00,49.4,48.8,30.09,SSE,164,15.0,17.0,98,0.00,,,0.00,HR-IXPWINDi_r2_v1.2.,2013-04-19 08:21:00,
2013-04-19 04:26:00,49.4,48.8,30.09,SE,143,14.0,18.0,98,0.00,,,0.00,HR-IXPWINDi_r2_v1.2.,2013-04-19 08:26:00,
2013-04-19 04:31:00,49.5,48.9,30.09,South,169,13.0,19.0,98,0.00,,,0.00,HR-IXPWINDi_r2_v1.2.,2013-04-19 08:31:00,
2013-04-19 04:36:00,49.4,48.8,30.09,SE,142,13.0,19.0,98,0.00,,,0.00,HR-IXPWINDi_r2_v1.2.,2013-04-19 08:36:00,
2013-04-19 04:41:00,49.4,48.8,30.09,SE,143,11.0,17.0,98,0.00,,,0.00,HR-IXPWINDi_r2_v1.2.,2013-04-19 08:41:00,
2013-04-19 04:46:00,49.3,48.7,30.09,South,177,7.0,16.0,98,0.00,,,0.00,HR-IXPWINDi_r2_v1.2.,2013-04-19 08:46:00,
2013-04-19 04:51:00,49.2,48.6,30.09,South,172,9.0,12.0,98,0.00,,,0.00,HR-IXPWINDi_r2_v1.2.,2013-04-19 08:51:00,
2013-04-19 04:57:00,49.2,48.6,30.09,South,170,6.0,13.0,98,0.00,,,0.00,HR-IXPWINDi_r2_v1.2.,2013-04-19 08:57:00,
2013-04-19 05:02:00,49.2,48.6,30.08,SSE,162,6.0,13.0,98,0.00,,,0.00,HR-IXPWINDi_r2_v1.2.,2013-04-19 09:02:00,
2013-04-19 05:07:00,49.3,48.7,30.08,SSW,195,7.0,12.0,98,0.00,,,0.00,HR-IXPWINDi_r2_v1.2.,2013-04-19 09:07:00,
2013-04-19 05:12:00,49.4,48.8,30.08,SSW,203,6.0,11.0,98,0.00,,,0.00,HR-IXPWINDi_r2_v1.2.,2013-04-19 09:12:00,
2013-04-19 05:17:00,49.5,48.9,30.09,WNW,283,5.0,8.0,98,0.00,,,0.00,HR-IXPWINDi_r2_v1.2.,2013-04-19 09:17:00,
2013-04-19 05:23:00,49.6,49.0,30.09,SW,229,8.0,9.0,98,0.00,,,0.00,HR-IXPWINDi_r2_v1.2.,2013-04-19 09:23:00,
2013-04-19 05:28:00,50.0,49.7,30.09,South,183,10.0,12.0,99,0.00,,,0.00,HR-IXPWINDi_r2_v1.2.,2013-04-19 09:28:00,
2013-04-19 05:33:00,50.5,50.2,30.09,SSW,198,7.0,13.0,99,0.00,,,0.00,HR-IXPWINDi_r2_v1.2.,2013-04-19 09:33:00,
2013-04-19 05:38:00,50.5,50.2,30.09,SSW,197,6.0,13.0,99,0.00,,,0.00,HR-IXPWINDi_r2_v1.2.,2013-04-19 09:38:00,
2013-04-19 05:43:00,50.1,49.8,30.09,South,181,8.0,13.0,99,0.00,,,0.00,HR-IXPWINDi_r2_v1.2.,2013-04-19 09:43:00,
2013-04-19 05:49:00,49.9,49.6,30.08,SSW,197,5.0,9.0,99,0.00,,,0.00,HR-IXPWINDi_r2_v1.2.,2013-04-19 09:49:00,
2013-04-19 05:54:00,49.7,49.4,30.08,South,170,3.0,9.0,99,0.00,,,0.00,HR-IXPWINDi_r2_v1.2.,2013-04-19 09:54:00,
2013-04-19 05:59:00,49.6,49.3,30.08,South,169,6.0,7.0,99,0.00,,,0.00,HR-IXPWINDi_r2_v1.2.,2013-04-19 09:59:00,
2013-04-19 06:04:00,49.4,49.1,30.08,SSE,165,5.0,8.0,99,0.00,,,0.00,HR-IXPWINDi_r2_v1.2.,2013-04-19 10:04:00,
2013-04-19 06:09:00,49.1,48.5,30.08,SSE,167,6.0,8.0,98,0.00,,,0.00,HR-IXPWINDi_r2_v1.2.,2013-04-19 10:09:00,
2013-04-19 06:14:00,49.1,48.8,30.08,South,184,4.0,7.0,99,0.00,,,0.00,HR-IXPWINDi_r2_v1.2.,2013-04-19 10:14:00,
2013-04-19 06:20:00,49.3,49.0,30.08,South,181,4.0,7.0,99,0.00,,,0.00,HR-IXPWINDi_r2_v1.2.,2013-04-19 10:20:00,
2013-04-19 06:25:00,50.2,49.9,30.09,South,184,4.0,7.0,99,0.00,,,0.00,HR-IXPWINDi_r2_v1.2.,2013-04-19 10:25:00,
2013-04-19 06:30:00,50.5,50.2,30.08,South,186,4.0,7.0,99,0.00,,,0.00,HR-IXPWINDi_r2_v1.2.,2013-04-19 10:30:00,
2013-04-19 06:35:00,50.5,50.2,30.08,SSW,204,4.0,6.0,99,0.00,,,0.00,HR-IXPWINDi_r2_v1.2.,2013-04-19 10:35:00,
2013-04-19 06:41:00,50.6,50.3,30.08,South,176,9.0,11.0,99,0.00,,,0.00,HR-IXPWINDi_r2_v1.2.,2013-04-19 10:41:00,
2013-04-19 06:46:00,50.4,50.1,30.08,South,186,8.0,13.0,99,0.00,,,0.00,HR-IXPWINDi_r2_v1.2.,2013-04-19 10:46:00,
2013-04-19 06:51:00,50.0,49.7,30.08,SSW,204,6.0,13.0,99,0.00,,,0.00,HR-IXPWINDi_r2_v1.2.,2013-04-19 10:51:00,
2013-04-19 06:56:00,49.7,49.4,30.07,SSW,197,6.0,11.0,99,0.00,,,0.00,HR-IXPWINDi_r2_v1.2.,2013-04-19 10:56:00,
2013-04-19 07:01:00,49.5,49.2,30.08,SW,215,7.0,9.0,99,0.00,,,0.00,HR-IXPWINDi_r2_v1.2.,2013-04-19 11:01:00,
2013-04-19 07:07:00,49.5,49.2,30.08,SSW,207,5.0,10.0,99,0.00,,,0.00,HR-IXPWINDi_r2_v1.2.,2013-04-19 11:07:00,
2013-04-19 07:12:00,49.6,49.3,30.08,SW,219,5.0,10.0,99,0.00,,,0.00,HR-IXPWINDi_r2_v1.2.,2013-04-19 11:12:00,
2013-04-19 07:17:00,49.5,49.2,30.08,SSW,203,8.0,10.0,99,0.00,,,0.00,HR-IXPWINDi_r2_v1.2.,2013-04-19 11:17:00,
2013-04-19 07:22:00,49.7,49.4,30.08,South,191,6.0,11.0,99,0.00,,,0.00,HR-IXPWINDi_r2_v1.2.,2013-04-19 11:22:00,
2013-04-19 07:27:00,49.9,49.6,30.08,SW,215,8.0,11.0,99,0.00,,,0.00,HR-IXPWINDi_r2_v1.2.,2013-04-19 11:27:00,
2013-04-19 07:33:00,50.2,49.9,30.08,WSW,240,5.0,9.0,99,0.00,,,0.00,HR-IXPWINDi_r2_v1.2.,2013-04-19 11:33:00,
2013-04-19 07:38:00,50.4,50.1,30.08,SSW,212,7.0,9.0,99,0.00,,,0.00,HR-IXPWINDi_r2_v1.2.,2013-04-19 11:38:00,
2013-04-19 07:43:00,50.6,50.3,30.08,SSW,200,9.0,11.0,99,0.00,,,0.00,HR-IXPWINDi_r2_v1.2.,2013-04-19 11:43:00,
2013-04-19 07:48:00,51.4,51.1,30.07,South,188,9.0,11.0,99,0.00,,,0.00,HR-IXPWINDi_r2_v1.2.,2013-04-19 11:48:00,
2013-04-19 07:54:00,52.3,52.0,30.07,SE,145,8.0,12.0,99,0.00,,,0.00,HR-IXPWINDi_r2_v1.2.,2013-04-19 11:54:00,
2013-04-19 07:59:00,52.1,51.8,30.07,SSE,167,7.0,13.0,99,0.00,,,0.00,HR-IXPWINDi_r2_v1.2.,2013-04-19 11:59:00,
2013-04-19 08:04:00,52.3,52.0,30.07,South,184,6.0,13.0,99,0.00,,,0.00,HR-IXPWINDi_r2_v1.2.,2013-04-19 12:04:00,
2013-04-19 08:09:00,52.1,51.8,30.07,SSW,203,10.0,14.0,99,0.00,,,0.00,HR-IXPWINDi_r2_v1.2.,2013-04-19 12:09:00,
2013-04-19 08:14:00,51.6,51.3,30.07,South,179,6.0,14.0,99,0.00,,,0.00,HR-IXPWINDi_r2_v1.2.,2013-04-19 12:14:00,
2013-04-19 08:19:00,51.2,50.9,30.06,South,174,10.0,14.0,99,0.00,,,0.00,HR-IXPWINDi_r2_v1.2.,2013-04-19 12:19:00,
2013-04-19 08:25:00,51.1,50.8,30.06,South,176,5.0,11.0,99,0.00,,,0.00,HR-IXPWINDi_r2_v1.2.,2013-04-19 12:25:00,
2013-04-19 08:30:00,50.8,50.5,30.06,SSW,201,7.0,11.0,99,0.00,,,0.00,HR-IXPWINDi_r2_v1.2.,2013-04-19 12:30:00,
2013-04-19 08:35:00,51.2,50.9,30.06,SSW,200,9.0,13.0,99,0.00,,,0.00,HR-IXPWINDi_r2_v1.2.,2013-04-19 12:35:00,
2013-04-19 08:40:00,51.6,51.3,30.06,SSW,205,8.0,13.0,99,0.00,,,0.00,HR-IXPWINDi_r2_v1.2.,2013-04-19 12:40:00,
2013-04-19 08:46:00,51.8,51.5,30.06,SW,228,5.0,11.0,99,0.00,,,0.00,HR-IXPWINDi_r2_v1.2.,2013-04-19 12:46:00,
2013-04-19 08:51:00,51.9,51.6,30.06,SSE,160,5.0,10.0,99,0.00,,,0.00,HR-IXPWINDi_r2_v1.2.,2013-04-19 12:51:00,
2013-04-19 08:56:00,51.7,51.4,30.06,SSE,165,5.0,8.0,99,0.00,,,0.00,HR-IXPWINDi_r2_v1.2.,2013-04-19 12:56:00,
2013-04-19 09:01:00,51.7,51.4,30.06,SW,222,7.0,9.0,99,0.00,,,0.00,HR-IXPWINDi_r2_v1.2.,2013-04-19 13:01:00,
2013-04-19 09:07:00,52.0,51.7,30.06,SW,219,5.0,11.0,99,0.00,,,0.00,HR-IXPWINDi_r2_v1.2.,2013-04-19 13:07:00,
2013-04-19 09:12:00,52.8,52.5,30.06,WSW,249,5.0,11.0,99,0.00,,,0.00,HR-IXPWINDi_r2_v1.2.,2013-04-19 13:12:00,
2013-04-19 09:17:00,52.9,52.6,30.06,WSW,253,6.0,10.0,99,0.00,,,0.00,HR-IXPWINDi_r2_v1.2.,2013-04-19 13:17:00,
2013-04-19 09:22:00,52.5,52.2,30.06,SW,217,10.0,11.0,99,0.00,,,0.00,HR-IXPWINDi_r2_v1.2.,2013-04-19 13:22:00,
2013-04-19 09:27:00,51.8,51.2,30.06,SSW,200,11.0,15.0,98,0.00,,,0.00,HR-IXPWINDi_r2_v1.2.,2013-04-19 13:27:00,
2013-04-19 09:33:00,52.0,51.7,30.06,SW,221,11.0,15.0,99,0.00,,,0.00,HR-IXPWINDi_r2_v1.2.,2013-04-19 13:33:00,
2013-04-19 09:38:00,51.8,51.5,30.05,WSW,243,9.0,14.0,99,0.00,,,0.00,HR-IXPWINDi_r2_v1.2.,2013-04-19 13:38:00,
2013-04-19 09:43:00,51.3,50.7,30.05,SW,231,6.0,14.0,98,0.00,,,0.00,HR-IXPWINDi_r2_v1.2.,2013-04-19 13:43:00,
2013-04-19 09:48:00,51.0,50.4,30.05,WSW,237,9.0,10.0,98,0.00,,,0.00,HR-IXPWINDi_r2_v1.2.,2013-04-19 13:48:00,
2013-04-19 09:54:00,50.9,50.3,30.05,West,263,5.0,10.0,98,0.00,,,0.00,HR-IXPWINDi_r2_v1.2.,2013-04-19 13:54:00,
2013-04-19 09:59:00,51.0,50.4,30.04,WSW,240,7.0,10.0,98,0.00,,,0.00,HR-IXPWINDi_r2_v1.2.,2013-04-19 13:59:00,
2013-04-19 10:04:00,51.1,50.5,30.04,SW,222,5.0,9.0,98,0.00,,,0.00,HR-IXPWINDi_r2_v1.2.,2013-04-19 14:04:00,
2013-04-19 10:09:00,51.4,50.8,30.04,SSW,208,6.0,9.0,98,0.00,,,0.00,HR-IXPWINDi_r2_v1.2.,2013-04-19 14:09:00,
2013-04-19 10:14:00,51.5,50.9,30.04,SW,215,7.0,11.0,98,0.00,,,0.00,HR-IXPWINDi_r2_v1.2.,2013-04-19 14:14:00,
2013-04-19 10:19:00,51.9,51.3,30.04,SW,215,9.0,11.0,98,0.00,,,0.00,HR-IXPWINDi_r2_v1.2.,2013-04-19 14:19:00,
2013-04-19 10:24:00,52.2,51.6,30.04,SSW,192,7.0,11.0,98,0.00,,,0.00,HR-IXPWINDi_r2_v1.2.,2013-04-19 14:24:00,
2013-04-19 10:30:00,52.1,51.5,30.04,South,174,7.0,11.0,98,0.00,,,0.00,HR-IXPWINDi_r2_v1.2.,2013-04-19 14:30:00,
2013-04-19 10:35:00,52.2,51.6,30.04,SSW,200,8.0,10.0,98,0.00,,,0.00,HR-IXPWINDi_r2_v1.2.,2013-04-19 14:35:00,
2013-04-19 10:40:00,52.1,51.5,30.04,SSW,210,10.0,12.0,98,0.00,,,0.00,HR-IXPWINDi_r2_v1.2.,2013-04-19 14:40:00,
2013-04-19 10:45:00,52.2,51.6,30.04,SSW,210,10.0,14.0,98,0.00,,,0.00,HR-IXPWINDi_r2_v1.2.,2013-04-19 14:45:00,
2013-04-19 10:50:00,52.5,51.9,30.04,SSW,212,14.0,15.0,98,0.00,,,0.00,HR-IXPWINDi_r2_v1.2.,2013-04-19 14:50:00,
2013-04-19 10:56:00,52.2,51.6,30.04,SW,214,14.0,17.0,98,0.00,,,0.00,HR-IXPWINDi_r2_v1.2.,2013-04-19 14:56:00,
2013-04-19 11:01:00,52.1,51.5,30.03,SSW,203,13.0,17.0,98,0.00,,,0.00,HR-IXPWINDi_r2_v1.2.,2013-04-19 15:01:00,
2013-04-19 11:06:00,51.9,51.3,30.04,SW,219,15.0,18.0,98,0.00,,,0.00,HR-IXPWINDi_r2_v1.2.,2013-04-19 15:06:00,
2013-04-19 11:11:00,51.8,51.2,30.03,SW,215,12.0,18.0,98,0.00,,,0.00,HR-IXPWINDi_r2_v1.2.,2013-04-19 15:11:00,
2013-04-19 11:16:00,51.6,51.0,30.03,SW,222,14.0,18.0,98,0.00,,,0.00,HR-IXPWINDi_r2_v1.2.,2013-04-19 15:16:00,
2013-04-19 11:21:00,51.3,50.7,30.03,SW,219,13.0,17.0,98,0.00,,,0.00,HR-IXPWINDi_r2_v1.2.,2013-04-19 15:21:00,
2013-04-19 11:26:00,51.2,50.6,30.02,SW,219,7.0,14.0,98,0.00,,,0.00,HR-IXPWINDi_r2_v1.2.,2013-04-19 15:26:00,
2013-04-19 11:32:00,51.4,50.8,30.02,SW,215,7.0,13.0,98,0.00,,,0.00,HR-IXPWINDi_r2_v1.2.,2013-04-19 15:32:00,
2013-04-19 11:37:00,51.6,51.0,30.02,SW,215,10.0,13.0,98,0.00,,,0.00,HR-IXPWINDi_r2_v1.2.,2013-04-19 15:37:00,
2013-04-19 11:42:00,51.7,51.1,30.01,SSE,167,9.0,12.0,98,0.00,,,0.00,HR-IXPWINDi_r2_v1.2.,2013-04-19 15:42:00,
2013-04-19 11:47:00,51.8,51.2,30.02,SSW,210,9.0,12.0,98,0.00,,,0.00,HR-IXPWINDi_r2_v1.2.,2013-04-19 15:47:00,
2013-04-19 11:53:00,52.0,51.4,30.01,SW,215,8.0,12.0,98,0.00,,,0.00,HR-IXPWINDi_r2_v1.2.,2013-04-19 15:53:00,
2013-04-19 11:58:00,52.4,51.8,30.01,SW,214,9.0,13.0,98,0.00,,,0.00,HR-IXPWINDi_r2_v1.2.,2013-04-19 15:58:00,
2013-04-19 12:03:00,52.7,52.1,30.01,SW,225,11.0,14.0,98,0.00,,,0.00,HR-IXPWINDi_r2_v1.2.,2013-04-19 16:03:00,
2013-04-19 12:08:00,52.4,51.8,30.01,SW,219,12.0,14.0,98,0.00,,,0.00,HR-IXPWINDi_r2_v1.2.,2013-04-19 16:08:00,
2013-04-19 12:13:00,52.2,51.6,30.00,WSW,250,6.0,14.0,98,0.00,,,0.00,HR-IXPWINDi_r2_v1.2.,2013-04-19 16:13:00,
2013-04-19 12:18:00,52.5,51.9,30.00,WSW,243,10.0,13.0,98,0.00,,,0.00,HR-IXPWINDi_r2_v1.2.,2013-04-19 16:18:00,
2013-04-19 12:23:00,52.7,52.4,30.00,SW,226,11.0,13.0,99,0.00,,,0.00,HR-IXPWINDi_r2_v1.2.,2013-04-19 16:23:00,
2013-04-19 12:29:00,53.0,52.7,30.00,SSW,203,9.0,13.0,99,0.00,,,0.00,HR-IXPWINDi_r2_v1.2.,2013-04-19 16:29:00,
2013-04-19 12:34:00,53.2,52.9,30.00,SSW,207,9.0,13.0,99,0.00,,,0.00,HR-IXPWINDi_r2_v1.2.,2013-04-19 16:34:00,
2013-04-19 12:39:00,53.4,53.1,29.99,SSW,205,9.0,13.0,99,0.00,,,0.00,HR-IXPWINDi_r2_v1.2.,2013-04-19 16:39:00,
2013-04-19 12:44:00,53.6,53.3,29.99,SW,215,11.0,14.0,99,0.00,,,0.00,HR-IXPWINDi_r2_v1.2.,2013-04-19 16:44:00,
2013-04-19 12:49:00,53.5,52.9,29.99,SSW,197,12.0,16.0,98,0.00,,,0.00,HR-IXPWINDi_r2_v1.2.,2013-04-19 16:49:00,
2013-04-19 12:54:00,53.6,53.3,29.99,South,176,10.0,16.0,99,0.00,,,0.00,HR-IXPWINDi_r2_v1.2.,2013-04-19 16:54:00,
2013-04-19 13:00:00,53.7,53.1,29.98,SSW,198,10.0,16.0,98,0.00,,,0.00,HR-IXPWINDi_r2_v1.2.,2013-04-19 17:00:00,
2013-04-19 13:05:00,53.9,53.3,29.98,SW,214,11.0,16.0,98,0.00,,,0.00,HR-IXPWINDi_r2_v1.2.,2013-04-19 17:05:00,
2013-04-19 13:10:00,54.3,53.7,29.98,SSW,195,11.0,15.0,98,0.00,,,0.00,HR-IXPWINDi_r2_v1.2.,2013-04-19 17:10:00,
2013-04-19 13:15:00,55.0,54.4,29.97,SSW,208,12.0,17.0,98,0.00,,,0.00,HR-IXPWINDi_r2_v1.2.,2013-04-19 17:15:00,
2013-04-19 13:20:00,55.5,54.9,29.97,South,188,13.0,18.0,98,0.00,,,0.00,HR-IXPWINDi_r2_v1.2.,2013-04-19 17:20:00,
2013-04-19 13:25:00,55.4,54.8,29.96,South,180,14.0,21.0,98,0.00,,,0.00,HR-IXPWINDi_r2_v1.2.,2013-04-19 17:25:00,
2013-04-19 13:30:00,55.4,54.8,29.96,SSE,167,14.0,21.0,98,0.00,,,0.00,HR-IXPWINDi_r2_v1.2.,2013-04-19 17:30:00,
2013-04-19 13:36:00,55.2,54.6,29.96,SE,139,14.0,17.0,98,0.00,,,0.00,HR-IXPWINDi_r2_v1.2.,2013-04-19 17:36:00,
2013-04-19 13:41:00,55.3,54.4,29.96,South,183,12.0,21.0,97,0.00,,,0.00,HR-IXPWINDi_r2_v1.2.,2013-04-19 17:41:00,
2013-04-19 13:46:00,55.7,55.1,29.96,South,180,14.0,21.0,98,0.00,,,0.00,HR-IXPWINDi_r2_v1.2.,2013-04-19 17:46:00,
2013-04-19 13:52:00,55.9,55.3,29.95,South,179,14.0,21.0,98,0.00,,,0.00,HR-IXPWINDi_r2_v1.2.,2013-04-19 17:52:00,
2013-04-19 13:57:00,55.9,55.0,29.95,South,169,15.0,21.0,97,0.00,,,0.00,HR-IXPWINDi_r2_v1.2.,2013-04-19 17:57:00,
2013-04-19 14:03:00,55.8,54.9,29.95,South,177,16.0,22.0,97,0.00,,,0.00,HR-IXPWINDi_r2_v1.2.,2013-04-19 18:03:00,
2013-04-19 14:08:00,55.6,54.4,29.95,SSE,161,17.0,22.0,96,0.00,,,0.00,HR-IXPWINDi_r2_v1.2.,2013-04-19 18:08:00,
2013-04-19 14:13:00,55.3,54.1,29.95,SSW,195,12.0,21.0,96,0.00,,,0.00,HR-IXPWINDi_r2_v1.2.,2013-04-19 18:13:00,
2013-04-19 14:18:00,55.5,54.6,29.95,South,178,18.0,21.0,97,0.00,,,0.00,HR-IXPWINDi_r2_v1.2.,2013-04-19 18:18:00,
2013-04-19 14:23:00,55.8,54.9,29.94,South,183,20.0,27.0,97,0.00,,,0.00,HR-IXPWINDi_r2_v1.2.,2013-04-19 18:23:00,
2013-04-19 14:28:00,55.7,54.8,29.94,South,176,12.0,27.0,97,0.00,,,0.00,HR-IXPWINDi_r2_v1.2.,2013-04-19 18:28:00,
2013-04-19 14:33:00,55.9,55.0,29.94,SSW,200,12.0,27.0,97,0.00,,,0.00,HR-IXPWINDi_r2_v1.2.,2013-04-19 18:33:00,
2013-04-19 14:38:00,55.6,54.7,29.94,South,183,14.0,25.0,97,0.00,,,0.00,HR-IXPWINDi_r2_v1.2.,2013-04-19 18:38:00,
2013-04-19 14:44:00,55.5,54.6,29.94,South,183,13.0,25.0,97,0.00,,,0.00,HR-IXPWINDi_r2_v1.2.,2013-04-19 18:44:00,
2013-04-19 14:49:00,54.9,53.7,29.94,South,177,17.0,21.0,96,0.00,,,0.00,HR-IXPWINDi_r2_v1.2.,2013-04-19 18:49:00,
2013-04-19 14:54:00,54.2,53.0,29.93,South,176,14.0,21.0,96,0.00,,,0.00,HR-IXPWINDi_r2_v1.2.,2013-04-19 18:54:00,
2013-04-19 14:59:00,54.1,53.2,29.93,SSE,161,20.0,20.0,97,0.00,,,0.00,HR-IXPWINDi_r2_v1.2.,2013-04-19 18:59:00,
2013-04-19 15:04:00,53.7,52.8,29.93,SSE,167,18.0,20.0,97,0.00,,,0.00,HR-IXPWINDi_r2_v1.2.,2013-04-19 19:04:00,
2013-04-19 15:09:00,53.9,53.0,29.93,South,177,11.0,20.0,97,0.00,,,0.00,HR-IXPWINDi_r2_v1.2.,2013-04-19 19:09:00,
2013-04-19 15:14:00,53.9,53.3,29.92,South,170,15.0,20.0,98,0.00,,,0.00,HR-IXPWINDi_r2_v1.2.,2013-04-19 19:14:00,
2013-04-19 15:20:00,53.8,53.2,29.92,SSE,167,9.0,20.0,98,0.00,,,0.00,HR-IXPWINDi_r2_v1.2.,2013-04-19 19:20:00,
2013-04-19 15:25:00,53.6,53.0,29.92,SSW,192,11.0,18.0,98,0.00,,,0.00,HR-IXPWINDi_r2_v1.2.,2013-04-19 19:25:00,
2013-04-19 15:30:00,53.5,52.9,29.92,South,189,10.0,16.0,98,0.00,,,0.00,HR-IXPWINDi_r2_v1.2.,2013-04-19 19:30:00,
2013-04-19 15:35:00,53.5,52.9,29.91,South,179,10.0,15.0,98,0.00,,,0.00,HR-IXPWINDi_r2_v1.2.,2013-04-19 19:35:00,
2013-04-19 15:40:00,53.3,52.7,29.91,South,184,8.0,14.0,98,0.00,,,0.00,HR-IXPWINDi_r2_v1.2.,2013-04-19 19:40:00,
2013-04-19 15:45:00,53.2,52.6,29.91,SSE,167,10.0,14.0,98,0.00,,,0.00,HR-IXPWINDi_r2_v1.2.,2013-04-19 19:45:00,
2013-04-19 15:50:00,53.1,52.5,29.90,South,181,10.0,16.0,98,0.00,,,0.00,HR-IXPWINDi_r2_v1.2.,2013-04-19 19:50:00,
2013-04-19 15:56:00,53.1,52.5,29.90,South,176,9.0,16.0,98,0.00,,,0.00,HR-IXPWINDi_r2_v1.2.,2013-04-19 19:56:00,
2013-04-19 16:01:00,53.1,52.5,29.90,SSE,165,16.0,18.0,98,0.00,,,0.00,HR-IXPWINDi_r2_v1.2.,2013-04-19 20:01:00,
2013-04-19 16:06:00,53.0,52.4,29.90,SSE,162,16.0,19.0,98,0.00,,,0.00,HR-IXPWINDi_r2_v1.2.,2013-04-19 20:06:00,
2013-04-19 16:11:00,52.8,52.2,29.89,South,183,12.0,19.0,98,0.00,,,0.00,HR-IXPWINDi_r2_v1.2.,2013-04-19 20:11:00,
2013-04-19 16:16:00,52.9,52.3,29.89,South,186,11.0,19.0,98,0.00,,,0.00,HR-IXPWINDi_r2_v1.2.,2013-04-19 20:16:00,
2013-04-19 16:22:00,52.9,52.3,29.89,SSE,166,8.0,18.0,98,0.00,,,0.00,HR-IXPWINDi_r2_v1.2.,2013-04-19 20:22:00,
2013-04-19 16:27:00,53.2,52.6,29.89,South,174,9.0,16.0,98,0.00,,,0.00,HR-IXPWINDi_r2_v1.2.,2013-04-19 20:27:00,
2013-04-19 16:32:00,53.0,52.4,29.88,South,173,9.0,16.0,98,0.00,,,0.00,HR-IXPWINDi_r2_v1.2.,2013-04-19 20:32:00,
2013-04-19 16:37:00,52.8,52.2,29.88,South,181,12.0,16.0,98,0.00,,,0.00,HR-IXPWINDi_r2_v1.2.,2013-04-19 20:37:00,
2013-04-19 16:42:00,53.2,52.9,29.88,SSE,164,12.0,16.0,99,0.00,,,0.00,HR-IXPWINDi_r2_v1.2.,2013-04-19 20:42:00,
2013-04-19 16:48:00,53.8,53.5,29.88,SSE,163,11.0,17.0,99,0.00,,,0.00,HR-IXPWINDi_r2_v1.2.,2013-04-19 20:48:00,
2013-04-19 16:53:00,53.9,53.6,29.88,South,180,13.0,17.0,99,0.00,,,0.01,HR-IXPWINDi_r2_v1.2.,2013-04-19 20:53:00,
2013-04-19 16:58:00,53.9,53.6,29.88,SSE,160,16.0,19.0,99,0.00,,,0.01,HR-IXPWINDi_r2_v1.2.,2013-04-19 20:58:00,
2013-04-19 17:03:00,53.4,53.1,29.87,South,172,15.0,19.0,99,0.04,,,0.02,HR-IXPWINDi_r2_v1.2.,2013-04-19 21:03:00,
2013-04-19 17:08:00,53.3,53.0,29.87,South,191,13.0,18.0,99,0.04,,,0.02,HR-IXPWINDi_r2_v1.2.,2013-04-19 21:08:00,
2013-04-19 17:13:00,53.3,53.0,29.87,SSE,158,14.0,18.0,99,0.04,,,0.02,HR-IXPWINDi_r2_v1.2.,2013-04-19 21:13:00,
2013-04-19 17:19:00,53.0,52.7,29.87,SSE,165,12.0,18.0,99,0.04,,,0.02,HR-IXPWINDi_r2_v1.2.,2013-04-19 21:19:00,
2013-04-19 17:24:00,52.9,52.6,29.86,South,172,16.0,18.0,99,0.00,,,0.02,HR-IXPWINDi_r2_v1.2.,2013-04-19 21:24:00,
2013-04-19 17:29:00,53.2,52.9,29.86,SSE,155,18.0,23.0,99,0.00,,,0.02,HR-IXPWINDi_r2_v1.2.,2013-04-19 21:29:00,
2013-04-19 17:35:00,53.5,53.2,29.86,South,169,18.0,24.0,99,0.00,,,0.02,HR-IXPWINDi_r2_v1.2.,2013-04-19 21:35:00,
2013-04-19 17:40:00,53.4,53.1,29.85,SSE,155,19.0,24.0,99,0.00,,,0.02,HR-IXPWINDi_r2_v1.2.,2013-04-19 21:40:00,
2013-04-19 17:45:00,53.4,53.1,29.85,SSE,160,23.0,27.0,99,0.00,,,0.02,HR-IXPWINDi_r2_v1.2.,2013-04-19 21:45:00,
2013-04-19 17:50:00,54.2,53.9,29.85,South,176,25.0,27.0,99,0.00,,,0.02,HR-IXPWINDi_r2_v1.2.,2013-04-19 21:50:00,
2013-04-19 17:56:00,54.1,53.8,29.84,SSE,154,20.0,30.0,99,0.00,,,0.02,HR-IXPWINDi_r2_v1.2.,2013-04-19 21:56:00,
2013-04-19 18:01:00,53.9,53.6,29.85,South,181,21.0,30.0,99,0.00,,,0.02,HR-IXPWINDi_r2_v1.2.,2013-04-19 22:01:00,
2013-04-19 18:06:00,54.0,53.7,29.84,SSE,155,26.0,28.0,99,0.00,,,0.02,HR-IXPWINDi_r2_v1.2.,2013-04-19 22:06:00,
2013-04-19 18:11:00,54.4,54.1,29.84,SSE,162,21.0,29.0,99,0.00,,,0.02,HR-IXPWINDi_r2_v1.2.,2013-04-19 22:11:00,
2013-04-19 18:16:00,54.3,54.0,29.84,SSE,162,22.0,31.0,99,0.00,,,0.02,HR-IXPWINDi_r2_v1.2.,2013-04-19 22:16:00,
2013-04-19 18:21:00,54.2,53.9,29.83,SSE,155,18.0,31.0,99,0.00,,,0.02,HR-IXPWINDi_r2_v1.2.,2013-04-19 22:21:00,
2013-04-19 18:27:00,54.3,54.0,29.83,SSE,160,20.0,28.0,99,0.00,,,0.02,HR-IXPWINDi_r2_v1.2.,2013-04-19 22:27:00,
2013-04-19 18:32:00,54.3,54.0,29.83,SSE,167,16.0,25.0,99,0.00,,,0.02,HR-IXPWINDi_r2_v1.2.,2013-04-19 22:32:00,
2013-04-19 18:37:00,54.3,54.0,29.83,South,182,13.0,25.0,99,0.00,,,0.02,HR-IXPWINDi_r2_v1.2.,2013-04-19 22:37:00,
2013-04-19 18:43:00,54.4,54.1,29.83,South,186,20.0,25.0,99,0.00,,,0.02,HR-IXPWINDi_r2_v1.2.,2013-04-19 22:43:00,
2013-04-19 18:48:00,54.8,54.5,29.83,South,181,14.0,25.0,99,0.00,,,0.02,HR-IXPWINDi_r2_v1.2.,2013-04-19 22:48:00,
2013-04-19 18:53:00,55.2,54.9,29.82,South,169,25.0,28.0,99,0.00,,,0.02,HR-IXPWINDi_r2_v1.2.,2013-04-19 22:53:00,
2013-04-19 18:58:00,55.5,55.2,29.83,South,178,25.0,31.0,99,0.00,,,0.02,HR-IXPWINDi_r2_v1.2.,2013-04-19 22:58:00,
2013-04-19 19:03:00,55.3,55.0,29.82,South,169,21.0,31.0,99,0.00,,,0.02,HR-IXPWINDi_r2_v1.2.,2013-04-19 23:03:00,
2013-04-19 19:09:00,55.0,54.7,29.82,SSE,167,21.0,30.0,99,0.00,,,0.02,HR-IXPWINDi_r2_v1.2.,2013-04-19 23:09:00,
2013-04-19 19:14:00,55.2,54.9,29.82,SSE,158,18.0,29.0,99,0.00,,,0.02,HR-IXPWINDi_r2_v1.2.,2013-04-19 23:14:00,
2013-04-19 19:19:00,54.9,54.6,29.82,South,189,16.0,29.0,99,0.00,,,0.02,HR-IXPWINDi_r2_v1.2.,2013-04-19 23:19:00,
2013-04-19 19:24:00,55.4,55.1,29.82,South,173,19.0,27.0,99,0.00,,,0.02,HR-IXPWINDi_r2_v1.2.,2013-04-19 23:24:00,
2013-04-19 19:29:00,55.3,55.0,29.82,South,189,19.0,28.0,99,0.00,,,0.02,HR-IXPWINDi_r2_v1.2.,2013-04-19 23:29:00,
2013-04-19 19:35:00,55.2,54.9,29.82,South,181,17.0,28.0,99,0.00,,,0.02,HR-IXPWINDi_r2_v1.2.,2013-04-19 23:35:00,
2013-04-19 19:40:00,55.3,55.0,29.82,South,174,16.0,27.0,99,0.00,,,0.02,HR-IXPWINDi_r2_v1.2.,2013-04-19 23:40:00,
2013-04-19 19:45:00,55.4,55.1,29.82,South,176,13.0,26.0,99,0.00,,,0.02,HR-IXPWINDi_r2_v1.2.,2013-04-19 23:45:00,
2013-04-19 19:50:00,55.5,55.2,29.83,SSW,205,19.0,26.0,99,0.00,,,0.02,HR-IXPWINDi_r2_v1.2.,2013-04-19 23:50:00,
2013-04-19 19:55:00,55.7,55.4,29.83,South,179,20.0,29.0,99,0.00,,,0.02,HR-IXPWINDi_r2_v1.2.,2013-04-19 23:55:00,
2013-04-19 20:01:00,55.5,55.2,29.83,SSW,193,13.0,29.0,99,0.00,,,0.02,HR-IXPWINDi_r2_v1.2.,2013-04-20 00:01:00,
2013-04-19 20:06:00,56.0,55.7,29.82,South,176,17.0,28.0,99,0.00,,,0.02,HR-IXPWINDi_r2_v1.2.,2013-04-20 00:06:00,
2013-04-19 20:11:00,56.4,56.1,29.83,SSW,207,16.0,30.0,99,0.00,,,0.02,HR-IXPWINDi_r2_v1.2.,2013-04-20 00:11:00,
2013-04-19 20:16:00,56.6,56.3,29.82,SSE,167,23.0,30.0,99,0.00,,,0.02,HR-IXPWINDi_r2_v1.2.,2013-04-20 00:16:00,
2013-04-19 20:22:00,56.9,56.6,29.82,South,174,26.0,31.0,99,0.00,,,0.02,HR-IXPWINDi_r2_v1.2.,2013-04-20 00:22:00,
2013-04-19 20:27:00,57.6,57.3,29.82,South,179,25.0,31.0,99,0.00,,,0.02,HR-IXPWINDi_r2_v1.2.,2013-04-20 00:27:00,
2013-04-19 20:32:00,57.9,57.6,29.82,SSW,211,19.0,32.0,99,0.00,,,0.02,HR-IXPWINDi_r2_v1.2.,2013-04-20 00:32:00,
2013-04-19 20:37:00,57.8,57.5,29.82,South,169,25.0,32.0,99,0.00,,,0.02,HR-IXPWINDi_r2_v1.2.,2013-04-20 00:37:00,
2013-04-19 20:42:00,57.8,57.5,29.82,SSW,203,22.0,31.0,99,0.00,,,0.02,HR-IXPWINDi_r2_v1.2.,2013-04-20 00:42:00,
2013-04-19 20:47:00,58.0,57.7,29.81,South,180,28.0,37.0,99,0.00,,,0.02,HR-IXPWINDi_r2_v1.2.,2013-04-20 00:47:00,
2013-04-19 20:52:00,58.6,58.2,29.81,SSE,168,24.0,38.0,99,0.00,,,0.02,HR-IXPWINDi_r2_v1.2.,2013-04-20 00:52:00,
2013-04-19 20:57:00,58.3,57.9,29.81,South,185,19.0,38.0,99,0.00,,,0.02,HR-IXPWINDi_r2_v1.2.,2013-04-20 00:57:00,
2013-04-19 21:02:00,58.0,57.7,29.81,South,186,17.0,36.0,99,0.00,,,0.02,HR-IXPWINDi_r2_v1.2.,2013-04-20 01:02:00,
2013-04-19 21:07:00,58.9,58.5,29.81,South,184,28.0,39.0,99,0.00,,,0.02,HR-IXPWINDi_r2_v1.2.,2013-04-20 01:07:00,
2013-04-19 21:12:00,58.6,58.2,29.81,SSE,152,26.0,39.0,99,0.00,,,0.02,HR-IXPWINDi_r2_v1.2.,2013-04-20 01:12:00,
2013-04-19 21:17:00,59.0,58.6,29.80,South,170,25.0,37.0,99,0.00,,,0.02,HR-IXPWINDi_r2_v1.2.,2013-04-20 01:17:00,
2013-04-19 21:22:00,58.4,58.0,29.80,SSW,193,27.0,36.0,99,0.00,,,0.02,HR-IXPWINDi_r2_v1.2.,2013-04-20 01:22:00,
2013-04-19 21:28:00,58.1,57.7,29.80,South,191,20.0,36.0,99,0.00,,,0.02,HR-IXPWINDi_r2_v1.2.,2013-04-20 01:28:00,
2013-04-19 21:33:00,57.7,57.4,29.80,SE,141,24.0,38.0,99,0.00,,,0.02,HR-IXPWINDi_r2_v1.2.,2013-04-20 01:33:00,
2013-04-19 21:38:00,57.8,57.5,29.80,SSW,200,18.0,38.0,99,0.00,,,0.02,HR-IXPWINDi_r2_v1.2.,2013-04-20 01:38:00,
2013-04-19 21:43:00,58.3,57.9,29.80,South,180,29.0,43.0,99,0.00,,,0.02,HR-IXPWINDi_r2_v1.2.,2013-04-20 01:43:00,
2013-04-19 21:48:00,58.3,57.9,29.79,SSW,198,23.0,43.0,99,0.00,,,0.02,HR-IXPWINDi_r2_v1.2.,2013-04-20 01:48:00,
2013-04-19 21:53:00,58.4,58.0,29.79,South,184,24.0,43.0,99,0.00,,,0.02,HR-IXPWINDi_r2_v1.2.,2013-04-20 01:53:00,
2013-04-19 21:58:00,58.4,58.0,29.79,SSW,198,26.0,35.0,99,0.00,,,0.02,HR-IXPWINDi_r2_v1.2.,2013-04-20 01:58:00,
2013-04-19 22:03:00,58.3,57.9,29.79,South,179,23.0,34.0,99,0.00,,,0.02,HR-IXPWINDi_r2_v1.2.,2013-04-20 02:03:00,
2013-04-19 22:08:00,58.2,57.8,29.78,SSE,164,26.0,35.0,99,0.00,,,0.02,HR-IXPWINDi_r2_v1.2.,2013-04-20 02:08:00,
2013-04-19 22:14:00,58.1,57.7,29.78,SSW,194,25.0,35.0,99,0.00,,,0.02,HR-IXPWINDi_r2_v1.2.,2013-04-20 02:14:00,
2013-04-19 22:19:00,57.8,57.5,29.78,South,179,22.0,34.0,99,0.00,,,0.02,HR-IXPWINDi_r2_v1.2.,2013-04-20 02:19:00,
2013-04-19 22:24:00,57.5,57.2,29.78,SSW,195,22.0,34.0,99,0.00,,,0.02,HR-IXPWINDi_r2_v1.2.,2013-04-20 02:24:00,
2013-04-19 22:29:00,57.7,57.4,29.77,South,188,25.0,34.0,99,0.00,,,0.02,HR-IXPWINDi_r2_v1.2.,2013-04-20 02:29:00,
2013-04-19 22:34:00,58.0,57.7,29.77,South,182,33.0,36.0,99,0.00,,,0.02,HR-IXPWINDi_r2_v1.2.,2013-04-20 02:34:00,
2013-04-19 22:39:00,58.3,57.9,29.77,SSE,158,26.0,38.0,99,0.00,,,0.02,HR-IXPWINDi_r2_v1.2.,2013-04-20 02:39:00,
2013-04-19 22:45:00,58.2,57.8,29.77,SSW,198,27.0,39.0,99,0.00,,,0.02,HR-IXPWINDi_r2_v1.2.,2013-04-20 02:45:00,
2013-04-19 22:50:00,58.1,57.7,29.77,South,179,35.0,39.0,99,0.00,,,0.02,HR-IXPWINDi_r2_v1.2.,2013-04-20 02:50:00,
2013-04-19 22:55:00,57.7,57.4,29.77,SSW,201,25.0,40.0,99,0.00,,,0.02,HR-IXPWINDi_r2_v1.2.,2013-04-20 02:55:00,
2013-04-19 23:00:00,57.4,57.1,29.77,South,185,29.0,40.0,99,0.00,,,0.02,HR-IXPWINDi_r2_v1.2.,2013-04-20 03:00:00,
2013-04-19 23:05:00,57.2,56.9,29.76,SSW,194,31.0,37.0,99,0.00,,,0.02,HR-IXPWINDi_r2_v1.2.,2013-04-20 03:05:00,
2013-04-19 23:10:00,57.2,56.9,29.76,SSW,195,25.0,38.0,99,0.00,,,0.02,HR-IXPWINDi_r2_v1.2.,2013-04-20 03:10:00,
2013-04-19 23:15:00,57.2,56.9,29.76,South,173,31.0,38.0,99,0.00,,,0.02,HR-IXPWINDi_r2_v1.2.,2013-04-20 03:15:00,
2013-04-19 23:20:00,57.1,56.8,29.76,South,183,30.0,37.0,99,0.00,,,0.02,HR-IXPWINDi_r2_v1.2.,2013-04-20 03:20:00,
2013-04-19 23:26:00,57.1,56.8,29.76,South,183,27.0,42.0,99,0.00,,,0.02,HR-IXPWINDi_r2_v1.2.,2013-04-20 03:26:00,
2013-04-19 23:31:00,56.7,56.4,29.76,SSW,205,24.0,42.0,99,0.00,,,0.02,HR-IXPWINDi_r2_v1.2.,2013-04-20 03:31:00,
2013-04-19 23:36:00,56.8,56.5,29.75,South,183,35.0,36.0,99,0.00,,,0.02,HR-IXPWINDi_r2_v1.2.,2013-04-20 03:36:00,
2013-04-19 23:41:00,57.0,56.7,29.76,SSW,194,21.0,40.0,99,0.00,,,0.02,HR-IXPWINDi_r2_v1.2.,2013-04-20 03:41:00,
2013-04-19 23:46:00,56.5,56.2,29.76,SSW,205,24.0,40.0,99,0.00,,,0.02,HR-IXPWINDi_r2_v1.2.,2013-04-20 03:46:00,
2013-04-19 23:51:00,56.6,56.3,29.75,South,179,33.0,39.0,99,0.00,,,0.02,HR-IXPWINDi_r2_v1.2.,2013-04-20 03:51:00,
2013-04-19 23:56:00,56.4,56.1,29.75,South,170,28.0,39.0,99,0.00,,,0.02,HR-IXPWINDi_r2_v1.2.,2013-04-20 03:56:00,